Weather History for KIOW - May, 2013

Change the Weather History Date:

Sunday, May 5, 2013

  Actual Average Record
Temperature  
Mean Temperature 61 °F 57 °F  
Max Temperature 74 °F 68 °F 91 °F (1949)
Min Temperature 48 °F 47 °F 33 °F (1954)
Degree Days  
Heating Degree Days 4 8  
Month to date heating degree days 63 44  
Since 1 July heating degree days 6326 6237  
Cooling Degree Days 0 1  
Month to date cooling degree days 0 2  
Year to date cooling degree days 10 6  
Growing Degree Days 12 (Base 50)    
Moisture  
Dew Point 51 °F    
Average Humidity 71    
Maximum Humidity 100    
Minimum Humidity 41    
Precipitation  
Precipitation 0.00 in 0.13 in 0.85 in (1991)
Month to date precipitation 3.67 0.73  
Year to date precipitation 17.00 8.61  
Sea Level Pressure  
Sea Level Pressure 30.03 in    
Wind  
Wind Speed 5 mph (North)    
Max Wind Speed 15 mph    
Max Gust Speed 20 mph    
Visibility 6 miles    
Events Fog    
T = Trace of Precipitation, MM = Missing Value Source: NWS Daily Summary

Daily Weather History Graph

Daily Weather History Graph

Search for Another Location

Airport or City:

Trip Planner

Search our weather history database for the weather conditions in past years. The results will help you decide how hot, cold, wet, or windy it might be!

Date:

Astronomy

May. 05, 2013 Rise Set
Actual Time 5:57 AM CDT 8:08 PM CDT
Civil Twilight 5:26 AM CDT 8:39 PM CDT
Nautical Twilight 4:49 AM CDT 9:17 PM CDT
Astronomical Twilight 4:07 AM CDT 9:59 PM CDT
Moon 3:31 AM CDT (5/5) 4:05 PM CDT (5/5)
Length of Visible Light 15h 12m
Length of Day
14h 11m
Waning Crescent, 18% of the Moon is Illuminated
May 5
Waning Crescent
May 9
New
May 17
First Quarter
May 24
Full
May 31
Last Quarter

Hourly Weather History & Observations

Time (CDT) Temp. Dew Point Humidity Pressure Visibility Wind Dir Wind Speed Gust Speed Precip Events Conditions
12:52 AM 54.0 °F 53.1 °F 97% 30.06 in 7.0 mi Calm Calm - N/A   Mostly Cloudy
1:11 AM 53.6 °F 53.6 °F 100% 30.05 in 1.5 mi Calm Calm - N/A   Overcast
1:15 AM 51.8 °F 51.8 °F 100% 30.05 in 0.8 mi Calm Calm - N/A   Overcast
1:29 AM 53.6 °F 51.8 °F 94% 30.05 in 1.2 mi Calm Calm - N/A   Overcast
1:32 AM 53.6 °F 51.8 °F 94% 30.05 in 3.0 mi Calm Calm - N/A   Overcast
1:52 AM 53.1 °F 53.1 °F 100% 30.05 in 3.0 mi Calm Calm - N/A   Partly Cloudy
1:56 AM 53.6 °F 53.6 °F 100% 30.04 in 1.8 mi Calm Calm - N/A   Partly Cloudy
1:58 AM 51.8 °F 51.8 °F 100% 30.04 in 1.0 mi Calm Calm - N/A   Partly Cloudy
2:05 AM 51.8 °F 50.0 °F 94% 30.04 in 0.2 mi Calm Calm - N/A Fog Fog
2:22 AM 51.8 °F 50.0 °F 94% 30.04 in 1.0 mi Calm Calm - N/A   Mostly Cloudy
2:24 AM 50.0 °F 50.0 °F 100% 30.04 in 2.0 mi Calm Calm - N/A   Mostly Cloudy
2:29 AM 50.0 °F 50.0 °F 100% 30.04 in 1.0 mi North 3.5 mph - N/A   Mostly Cloudy
2:36 AM 50.0 °F 48.2 °F 94% 30.04 in 0.8 mi North 3.5 mph - N/A   Mostly Cloudy
2:40 AM 50.0 °F 50.0 °F 100% 30.04 in 1.2 mi North 4.6 mph - N/A   Mostly Cloudy
2:44 AM 51.8 °F 51.8 °F 100% 30.04 in 4.0 mi North 3.5 mph - N/A   Mostly Cloudy
2:52 AM 52.0 °F 51.1 °F 97% 30.04 in 10.0 mi NNW 3.5 mph - N/A   Mostly Cloudy
3:52 AM 51.1 °F 50.0 °F 96% 30.04 in 10.0 mi Calm Calm - N/A   Clear
4:52 AM 50.0 °F 48.9 °F 96% 30.04 in 10.0 mi Calm Calm - N/A   Clear
5:52 AM 50.0 °F 48.9 °F 96% 30.04 in 10.0 mi Calm Calm - 0.01 in   Clear
6:52 AM 50.0 °F 48.9 °F 96% 30.06 in 9.0 mi Calm Calm - N/A   Clear
7:04 AM 50.0 °F 50.0 °F 100% 30.05 in 6.0 mi Calm Calm - N/A   Scattered Clouds
7:15 AM 51.8 °F 50.0 °F 94% 30.05 in 5.0 mi Calm Calm - N/A   Mostly Cloudy
7:42 AM 51.8 °F 51.8 °F 100% 30.05 in 1.8 mi NNW 4.6 mph - N/A   Overcast
7:46 AM 51.8 °F 51.8 °F 100% 30.05 in 0.8 mi NNW 4.6 mph - N/A   Overcast
7:52 AM 52.0 °F 52.0 °F 100% 30.06 in 0.5 mi NNW 4.6 mph - N/A Fog Fog
8:26 AM 53.6 °F 53.6 °F 100% 30.05 in 1.2 mi NNW 4.6 mph - N/A   Overcast
8:38 AM 53.6 °F 53.6 °F 100% 30.06 in 3.0 mi NNW 4.6 mph - N/A   Overcast
9:52 AM 59.0 °F 55.9 °F 90% 30.05 in 10.0 mi WNW 6.9 mph - N/A   Scattered Clouds
10:52 AM 64.9 °F 57.9 °F 78% 30.05 in 10.0 mi North 4.6 mph - N/A   Partly Cloudy
11:52 AM 66.9 °F 55.9 °F 68% 30.05 in 10.0 mi Variable 4.6 mph - N/A   Partly Cloudy
12:52 PM 70.0 °F 54.0 °F 57% 30.03 in 10.0 mi North 5.8 mph - N/A   Scattered Clouds
1:52 PM 72.0 °F 51.1 °F 48% 30.01 in 10.0 mi NE 3.5 mph - N/A   Scattered Clouds
2:52 PM 72.0 °F 48.9 °F 44% 29.99 in 10.0 mi ENE 12.7 mph - N/A   Scattered Clouds
3:52 PM 73.0 °F 48.9 °F 42% 29.98 in 10.0 mi ENE 10.4 mph 18.4 mph N/A   Scattered Clouds
4:52 PM 71.1 °F 48.0 °F 44% 29.98 in 10.0 mi ENE 8.1 mph - N/A   Overcast
5:52 PM 73.0 °F 48.0 °F 41% 29.98 in 10.0 mi North 9.2 mph - N/A   Mostly Cloudy
6:52 PM 70.0 °F 48.9 °F 47% 29.98 in 10.0 mi North 6.9 mph - N/A   Clear
7:52 PM 68.0 °F 50.0 °F 52% 29.99 in 10.0 mi NNE 4.6 mph - N/A   Clear
8:52 PM 66.0 °F 48.9 °F 54% 30.00 in 10.0 mi NNE 3.5 mph - N/A   Partly Cloudy
9:52 PM 64.0 °F 51.1 °F 63% 30.01 in 10.0 mi NE 3.5 mph - N/A   Overcast
10:52 PM 63.0 °F 48.9 °F 60% 30.01 in 10.0 mi NE 5.8 mph - N/A   Clear
11:52 PM 61.0 °F 48.9 °F 64% 30.02 in 10.0 mi ESE 5.8 mph - N/A   Overcast